STARLINK-2750 (48691 NORAD) Tracking and Keplerian Element Data

This shows tracking and keplerian element data for the satellite.

Feedback or suggestion? Click here.




ElementValue
Catalog48691
NameSTARLINK-2750
Epoch Orbit369
Epoch Day214.91667824
Epoch Year2021
RAAN85.9904
Inclination53.047
Eccentricity0.0002526
Argument of Perigee28.4518
Mean Anonmoly58.3288
Mean Motion15.73187921
Decay Rate7.7E-06
L11 48691U 21044BF 21214.91667824 .00000770 00000-0 99228-5 0 9991
L22 48691 53.0470 85.9904 0002526 28.4518 58.3288 15.73187921 3693

Live tracking and technical data element details for STARLINK-2750 (NORAD 48691). STARLINK-2750 can be tracked NOW for your location showing map with azimuth and elevation plus other details from your city location.

Track the satellite on the map from your city or location and see movement details for azimuth, elevation, latitude, longitude, range, height, and movement on the map or in text.







IsCatalogInMostPopularTable: catalog: 48691, numindb: 15
Update: records affected: 1



GetName: 48691 STARLINK-2750

Hit Count: updated at: Tue, 03 Aug 2021 23:31:16 GMT